This is the latest recevied weather packets stored in our database for station/object NO4D. If no packets are shown the sender has not sent any weather packets the latest 10 day(s).
| Time | Temp. | Humidity | Pressure | Rain* | Wind** | Luminosity | Snow |
|---|---|---|---|---|---|---|---|
| 1777787306 | 10° C | 63% | 1017.2 hPa | 0 mm | - | 0 W/m² | - |
| 1777787001 | 10° C | 64% | 1017.3 hPa | 0 mm | - | 0 W/m² | - |
| 1777786700 | 10° C | 65% | 1017.3 hPa | 0 mm | - | 0 W/m² | - |
| 1777786398 | 10° C | 64% | 1017.2 hPa | 0 mm | - | 0 W/m² | - |
| 1777786094 | 10° C | 64% | 1017.1 hPa | 0 mm | - | 0 W/m² | - |
| 1777785791 | 10° C | 63% | 1017.1 hPa | 0 mm | - | 0 W/m² | - |
| 1777785487 | 10° C | 64% | 1017.2 hPa | 0 mm | - | 0 W/m² | - |
| 1777785183 | 10° C | 64% | 1016.9 hPa | 0 mm | - | 0 W/m² | - |
| 1777784880 | 9.44° C | 67% | 1017.1 hPa | 0 mm | - | 0 W/m² | - |
| 1777784576 | 9.44° C | 67% | 1017.1 hPa | 0 mm | - | 0 W/m² | - |
| 1777784274 | 9.44° C | 66% | 1017 hPa | 0 mm | - | 0 W/m² | - |
| 1777783972 | 10° C | 65% | 1017.1 hPa | 0 mm | - | 0 W/m² | - |
| 1777783668 | 10° C | 64% | 1017 hPa | 0 mm | - | 0 W/m² | - |
| 1777783365 | 10° C | 62% | 1017 hPa | 0 mm | - | 0 W/m² | - |
| 1777783062 | 10.56° C | 63% | 1017.2 hPa | 0 mm | - | 0 W/m² | - |
| 1777782759 | 10.56° C | 61% | 1017.1 hPa | 0 mm | - | 0 W/m² | - |
| 1777782455 | 10.56° C | 60% | 1016.9 hPa | 0 mm | - | 0 W/m² | - |
| 1777782152 | 10.56° C | 61% | 1016.7 hPa | 0 mm | - | 0 W/m² | - |
| 1777781848 | 10.56° C | 59% | 1016.9 hPa | 0 mm | - | 0 W/m² | - |
| 1777781546 | 10.56° C | 59% | 1016.9 hPa | 0 mm | - | 0 W/m² | - |
| 1777781244 | 11.11° C | 60% | 1016.8 hPa | 0 mm | - | 0 W/m² | - |
| 1777780941 | 10.56° C | 60% | 1016.7 hPa | 0 mm | - | 0 W/m² | - |
| 1777780637 | 11.11° C | 58% | 1016.7 hPa | 0 mm | - | 0 W/m² | - |
| 1777780335 | 10.56° C | 59% | 1016.5 hPa | 0 mm | - | 0 W/m² | - |
| 1777780032 | 10.56° C | 61% | 1016.4 hPa | 0 mm | - | 0 W/m² | - |
* Rain latest hour (hover to see other rain measurements)
** Current wind speed in m/s (hover to see current wind gust speed)